Location: Asni�res
(49.1337°N, 2.3555°E)
Time: 21:29:31
(UTC+00:00)

CENTAUR R/B - Pass Details

Date: 16 October 2021
Orbit: 728 x 1459 km, 63.4° (Epoch: 26 November)

Event Time Altitude Azimuth Distance (km) Brightness Sun altitude
Rises 18:51:43 0° 286° (WNW) 3,710 7.1 -19.3°
Reaches altitude 10° 18:54:36 10° 299° (WNW) 2,877 6.0 -19.7°
Maximum altitude 19:00:25 27° 356° (N) 2,079 4.3 -20.7°
Enters shadow 19:06:07 13° 47° (NE) 3,072 4.8 -21.6°
